Overview Statistics Trail Chart Weather Telemetry Raw packets
 

This is the latest recevied weather packets stored in our database for station/object SP6KBU-12. If no packets are shown the sender has not sent any weather packets the latest 10 day(s).

<< 2 3 4 5 6 7 8 >>
Time Temp. Humidity Pressure Rain* Wind** Luminosity Snow
1788534357 23.89° C 53% 1012.6 hPa - - - -
1788533457 24.44° C 53% 1012.7 hPa - - - -
1788532556 23.89° C 55% 1012.5 hPa - - - -
1788531656 23.33° C 56% 1013.1 hPa - - - -
1788530755 23.33° C 56% 1013.5 hPa - - - -
1788529901 23.33° C 55% 1013.5 hPa - - - -
1788529856 23.33° C 55% 1013.5 hPa - - - -
1788528993 23.33° C 55% 1013.7 hPa - - - -
1788528956 23.33° C 55% 1013.7 hPa - - - -
1788528055 23.89° C 54% 1014 hPa - - - -
1788527155 24.44° C 51% 1014.1 hPa - - - -
1788526254 23.33° C 54% 1014.4 hPa - - - -
1788525357 23.33° C 55% 1014.6 hPa - - - -
1788524512 22.78° C 55% 1014.7 hPa - - - -
1788524454 22.78° C 55% 1014.7 hPa - - - -
1788523554 22.78° C 54% 1014.9 hPa - - - -
1788522696 24.44° C 51% 1015 hPa - - - -
1788522653 24.44° C 51% 1015 hPa - - - -
1788521753 24.44° C 47% 1015.2 hPa - - - -
1788520853 25° C 46% 1015.2 hPa - - - -
1788519952 23.33° C 51% 1015.5 hPa - - - -
1788519053 23.33° C 53% 1015.7 hPa - - - -
1788518152 21.67° C 61% 1016 hPa - - - -
1788517251 21.11° C 60% 1016 hPa - - - -
1788516352 21.11° C 60% 1016.2 hPa - - - -

* Rain since midnight (hover to see other rain measurements)
** Current wind speed in m/s (hover to see current wind gust speed)